Location: Maiden_LMO
(35.5760°N, 81.2120°W)
Time: 17:18:27
(UTC-04:00)

Daily predictions for brighter satellites

Satellite Brightness Start Highest point End
(mag) Time Altitude Azimuth Time Altitude Azimuth Time Altitude Azimuth
Cosmos 2228 Rocket 3.8 21:06:20 10° NNE 21:10:28 36° E 21:14:37 10° SE
ALOS 2.4 21:07:38 10° S 21:12:18 84° W 21:17:00 10° NNW
Cosmos 1743 Rocket 4.0 21:11:42 10° SSE 21:15:56 44° E 21:20:11 10° NNE
ASTRO E2 4.4 21:12:54 10° WSW 21:15:59 21° SSW 21:19:05 10° SSE
Resurs 01 Rocket 4.2 21:13:15 10° SW 21:16:35 21° W 21:19:55 10° NW
Cosmos 1500 Rocket 4.3 21:18:50 10° SSE 21:22:46 34° E 21:26:42 10° NNE
USA 186 2.0 21:20:49 10° S 21:23:05 45° W 21:25:25 10° NNW
Cosmos 2221 3.4 21:21:44 10° NNW 21:25:53 52° W 21:30:02 10° S
deb Chang Zheng 4 3.7 21:23:35 10° NNE 21:27:51 54° ESE 21:32:04 10° S
BREEZE M DEB (TANK) 1.5 21:27:39 10° WNW 21:29:32 57° SSW 21:32:05 12° SE
Cosmos 1441 Rocket 3.4 21:30:03 10° S 21:33:42 47° E 21:37:20 10° NNE
ATLAS CENTAUR R/B 1.4 21:32:26 10° NNW 21:36:57 90° ENE 21:40:43 12° SSE
Delta 2 Rocket 3.3 21:34:10 10° SW 21:37:34 41° SSE 21:40:46 10° E
CZ-2C R/B -0.1 21:36:41 20° SSE 21:37:40 51° ENE 21:39:23 10° N
SJ-11-01 4.3 21:34:07 10° SSE 21:38:48 79° ENE 21:43:32 10° N
Cosmos 1538 Rocket 4.2 21:35:20 10° N 21:40:37 60° ENE 21:45:23 13° SSE
Cosmos 2322 Rocket 2.2 21:35:38 10° NNW 21:41:14 70° ENE 21:46:21 12° SSE
SL-16 R/B 2.2 21:44:50 10° NNW 21:50:32 78° ENE 21:55:21 15° SSE
Cosmos 1980 Rocket 3.6 21:46:15 10° NW 21:51:20 35° WSW 21:56:24 10° SSW
Cosmos 2360 Rocket 3.3 21:47:05 10° N 21:52:00 30° ENE 21:55:40 16° ESE
Cosmos 1939 Rocket 2.8 21:48:28 12° SSE 21:52:04 77° ENE 21:55:59 10° N
Cosmos 1515 Rocket 3.6 21:48:52 10° N 21:53:17 65° E 21:56:54 15° SSE
AVUM R/B 2.6 21:52:34 24° SSE 21:53:32 42° ESE 21:55:49 10° NE
In-Cosmos 22 4.5 21:49:10 10° SSW 21:54:55 77° W 22:00:42 10° N
Cosmos 1908 3.8 21:51:41 10° N 21:55:21 39° E 21:57:31 21° SE
CZ-4B R/B 4.2 21:51:02 10° NNE 21:55:52 36° E 21:59:35 15° SSE
Cosmos 2266 Rocket 4.1 21:50:02 10° S 21:56:14 59° E 22:02:21 10° NNE
H-2A R/B 2.6 21:57:03 10° SSW 21:57:30 11° SSW 21:57:30 11° SSW
Cosmos 1553 Rocket 4.1 21:53:59 10° N 22:00:24 82° W 22:06:43 10° S
Nimbus 7 Rocket 4.4 21:54:47 10° NNE 22:00:41 88° ESE 22:06:32 10° SSW
USA 229 DEB 3.8 21:55:21 10° SSW 22:02:16 85° WNW 22:09:18 10° NNE
USA 229 3.8 21:55:27 10° SSW 22:02:22 86° WNW 22:09:24 10° NNE
Meteor 2-20 Rocket 4.5 21:58:49 10° S 22:04:54 65° E 22:10:59 10° NNE
Meteor 2-2 Rocket 4.4 22:00:49 10° N 22:06:50 75° E 22:11:41 16° SSE
Cosmos 773 Rocket 4.1 22:02:18 10° N 22:07:27 59° ENE 22:10:40 23° SE
MetOp-B 4.3 22:06:26 20° SE 22:10:02 58° ENE 22:15:18 10° N
Cosmos 2151 3.0 22:10:12 21° SSE 22:12:50 56° E 22:16:57 10° NNE
Cosmos 1674 2.6 22:09:53 15° S 22:13:03 86° E 22:16:54 10° N
Terra 3.8 22:12:30 12° E 22:14:05 14° ENE 22:16:30 10° NE
CZ-4 SHROUD 3.1 22:14:01 34° SSE 22:15:15 81° E 22:18:25 10° N
Cosmos 1833 4.2 22:11:06 10° SSW 22:16:50 88° WNW 22:22:33 10° NNE
Cosmos 1437 Rocket 2.7 22:14:39 10° N 22:18:28 80° W 22:20:37 25° S
Cosmos 1805 Rocket 4.2 22:17:06 28° SE 22:18:37 37° E 22:22:43 10° NNE
NOSS 3-1 (A) 4.0 22:20:06 25° SSE 22:22:14 31° ESE 22:27:36 10° NE
GPS 2-04 Rocket1 3.7 22:18:43 10° W 22:22:44 37° SSW 22:23:58 30° SSE
Cosmos 1151 Rocket 2.9 22:18:59 10° N 22:23:18 82° E 22:25:32 28° S
Cosmos 1300 3.9 22:21:33 10° NNE 22:24:46 25° ENE 22:25:08 25° E
OAO 2 Rocket 4.2 22:20:34 10° SSW 22:25:08 29° SSE 22:25:25 29° SSE
CZ-4 R/B 4.1 22:21:37 10° NNE 22:26:25 49° E 22:28:34 29° SSE
CZ-4C R/B 4.5 22:31:53 23° ENE 22:31:57 23° ENE 22:34:46 10° NNE
Nadezhda 2 Rocket 4.4 22:28:44 17° S 22:33:34 79° E 22:39:41 10° N
COSMOS 2428 3.7 22:29:17 10° N 22:34:21 32° ENE 22:36:34 24° E
Envisat 3.8 22:30:38 15° S 22:34:40 47° W 22:39:34 10° NNW
H-2A R/B 3.7 22:31:03 10° SSW 22:35:00 31° W 22:39:02 10° NW
Cosmos 1328 3.7 22:34:24 31° S 22:36:14 87° W 22:40:12 10° N
Cosmos 1707 Rocket 4.0 22:35:45 10° N 22:39:54 43° E 22:40:39 39° ESE
Cosmos 1666 Rocket 3.8 22:39:51 42° SE 22:40:37 47° E 22:44:51 10° NNE
DELTA 2 R/B (1) 3.7 22:37:13 10° WNW 22:42:45 71° NNE 22:45:57 26° E
Cosmos 2298 Rocket 4.2 22:41:52 36° SSE 22:43:36 50° ESE 22:48:44 10° NNE
Cosmos 2058 2.7 22:42:56 44° S 22:44:09 80° E 22:48:16 10° N
ATLAS 2AS CENTAUR R/B 4.1 22:45:16 21° E 22:45:16 21° E 22:50:19 10° ENE
Cosmos 2112 Rocket 4.0 22:40:47 10° NNW 22:46:00 69° ENE 22:47:48 41° SE
YAOGAN 6 2.9 22:46:03 43° SSW 22:47:00 61° W 22:50:36 10° NNW
SPOT 5 3.8 22:45:54 20° SSW 22:48:32 40° W 22:52:56 10° NNW
Cosmos 1437 4.3 22:52:16 23° SW 22:53:40 34° WNW 22:56:43 10° N
Cosmos 405 4.4 22:51:18 10° NNW 22:54:37 34° W 22:55:47 27° SW
Cosmos 2219 Rocket 3.6 22:50:34 10° N 22:54:59 23° ENE 22:56:41 20° E
Cosmos 1937 Rocket 4.0 22:56:44 39° ESE 22:56:51 39° E 23:01:41 10° NE
ARGOS 3.1 22:55:49 39° S 22:57:55 86° WSW 23:03:21 10° NNW
H-2A R/B 2.4 23:00:41 42° ESE 23:01:55 51° ENE 23:07:08 10° N
SL-14 R/B 3.1 23:05:20 78° SSW 23:05:33 85° W 23:09:33 10° N
Cosmos 1703 4.0 23:07:24 42° ENE 23:07:24 42° ENE 23:10:25 10° NNE
IGS 5A 4.1 23:07:26 40° ENE 23:07:26 40° ENE 23:11:15 10° N
Cosmos 2219 3.6 23:02:11 10° SSW 23:07:51 62° WNW 23:13:34 10° NNE
SL-08 RB Rocket 3.7 23:08:39 57° SSW 23:09:28 73° WSW 23:13:57 10° NNW
NOSS 3-1 (C) 3.4 23:04:31 10° SW 23:10:18 81° WNW 23:16:42 10° NNE
Meteor 1-27 4.1 23:05:11 10° N 23:10:54 88° W 23:12:32 49° S
SPOT 1/Viking Rocket 4.2 23:12:06 32° SSW 23:14:01 47° W 23:18:59 10° NNW
Cosmos 1271 Rocket 3.5 23:11:49 10° N 23:14:50 43° NE 23:14:50 43° NE
Cosmos 2242 Rocket 3.6 23:12:05 10° N 23:16:32 67° E 23:16:33 67° E
DELTA 2 DEB (DPAF) 4.0 23:16:07 70° SSW 23:16:36 81° WSW 23:21:06 10° NNW
Cosmos 2333 4.4 23:11:39 10° NNW 23:17:18 58° ENE 23:18:26 49° ESE
Cosmos 2322 4.3 23:13:39 10° NNW 23:19:10 49° WSW 23:20:54 37° SSW
Cosmos 2082 4.3 23:21:49 38° E 23:21:49 38° E 23:26:32 10° NE
Cosmos 2237 Rocket 3.5 23:17:19 10° N 23:22:02 26° ENE 23:23:15 24° E
Cosmos 1726 2.5 23:19:07 10° NNW 23:22:28 62° NW 23:22:28 62° NW
Cosmos 1680 Rocket 4.3 23:18:31 10° NNW 23:23:27 42° WSW 23:24:52 35° SW
Iridium 2 4.3 23:28:43 55° N 23:28:43 55° N 23:31:47 10° N
Cosmos 2150 Rocket 4.4 23:31:21 35° SW 23:33:31 62° WNW 23:38:57 10° N
Cosmos 1898 Rocket 3.9 23:33:17 39° SW 23:35:01 60° WNW 23:40:10 10° N
Landsat 7 4.1 23:35:02 53° WSW 23:35:28 55° W 23:40:09 10° NNW
Cosmos 2360 Rocket 3.3 23:30:57 10° NW 23:35:57 33° WSW 23:37:27 29° SW
CARTOSAT-1 3.7 23:37:19 69° WNW 23:37:19 69° WNW 23:41:22 10° NNW
Cosmos 1862 Rocket 4.3 23:33:57 10° N 23:37:19 42° NE 23:37:19 42° NE
DMSP B5D2-2 4.2 23:36:14 10° N 23:41:25 68° WNW 23:42:27 54° SW
Cosmos 1633 Rocket 4.2 23:42:16 34° WSW 23:43:01 36° W 23:47:05 10° NNW
Sich 1 4.4 23:42:31 31° WSW 23:43:28 34° WNW 23:47:30 10° NNW
Spot 4 3.8 23:44:36 85° WNW 23:44:36 85° WNW 23:49:22 10° NNW
Terra 2.2 23:51:23 55° W 23:51:23 55° W 23:56:00 10° NNW
Cosmos 292 Rocket 3.9 23:50:07 10° NNW 23:54:22 69° NW 23:54:22 69° NW
